N565JC KOPF-KILG

Flight info

Callsign N565JC
Flight time 2h 2m
Altitude 41000
Route FOLZZ3 ALYRA PELCN Y309 FLRDA IDOLS SKARP Q101 KALDA ZJAAY JIIMS4
Aircraft GLF5/M-SBDE1E2E3FGHIJ5M1RWXYZ/LV2D1

Departure

Time 2026-05-04 16:46
Airport Miami-Opa Locka Executive Airport (KOPF)

Arrival

Time 2026-05-04 18:48
Airport Wilmington Airport (KILG)
Time Latitude Longitude Altitude Speed Heading
2026-05-04 16:14 25.91123 -80.26661 12 ft 0 kts 179°
2026-05-04 16:26 25.91097 -80.26659 12 ft 3 kts 180°
2026-05-04 16:27 25.91101 -80.26741 12 ft 8 kts 327°
2026-05-04 16:28 25.91164 -80.26965 12 ft 15 kts 267°
2026-05-04 16:28 25.91147 -80.27346 9 ft 15 kts 267°
2026-05-04 16:29 25.91129 -80.27695 9 ft 7 kts 266°
2026-05-04 16:30 25.91112 -80.27969 9 ft 16 kts 266°
2026-05-04 16:31 25.91102 -80.28185 9 ft 11 kts 268°
2026-05-04 16:31 25.91092 -80.28397 9 ft 9 kts 267°
2026-05-04 16:32 25.91121 -80.28748 12 ft 13 kts 290°
2026-05-04 16:33 25.91221 -80.28844 12 ft 6 kts 355°
2026-05-04 16:33 25.91210 -80.28843 12 ft 5 kts 357°
2026-05-04 16:34 25.91167 -80.28840 12 ft 0 kts
2026-05-04 16:44 25.91216 -80.28841 12 ft 18 kts 358°
2026-05-04 16:45 25.91304 -80.28024 29 ft 152 kts 86°
2026-05-04 16:46 25.91358 -80.24118 1957 ft 186 kts 86°
2026-05-04 16:46 25.91392 -80.21012 1974 ft 205 kts 86°
2026-05-04 16:47 25.92318 -80.18205 2023 ft 200 kts 57°
2026-05-04 16:47 25.93952 -80.16020 2002 ft 199 kts 10°
2026-05-04 16:48 25.97217 -80.13095 4873 ft 263 kts 72°
2026-05-04 16:48 25.97803 -80.11126 6077 ft 276 kts 70°
2026-05-04 16:49 25.98955 -80.07039 8755 ft 289 kts 72°
2026-05-04 16:49 26.00158 -80.02616 10648 ft 326 kts 72°
2026-05-04 16:50 26.01580 -79.97346 12163 ft 362 kts 73°
2026-05-04 16:50 26.03037 -79.91933 14053 ft 380 kts 72°
2026-05-04 16:51 26.04569 -79.86231 16021 ft 393 kts 72°
2026-05-04 16:51 26.05361 -79.83282 16991 ft 399 kts 72°
2026-05-04 16:51 26.06965 -79.77302 18893 ft 414 kts 72°
2026-05-04 16:52 26.08635 -79.71062 20848 ft 429 kts 72°
2026-05-04 16:52 26.09497 -79.67834 21837 ft 437 kts 72°
2026-05-04 16:53 26.11978 -79.61740 23703 ft 448 kts 55°
2026-05-04 16:53 26.17452 -79.52978 26303 ft 470 kts 52°
2026-05-04 16:54 26.19332 -79.50016 27126 ft 476 kts 52°
2026-05-04 16:55 26.27210 -79.37600 30040 ft 501 kts 50°
2026-05-04 16:55 26.32416 -79.32436 31316 ft 502 kts 30°
2026-05-04 16:56 26.38233 -79.28266 33097 ft 499 kts 28°
2026-05-04 16:56 26.46961 -79.22044 35633 ft 495 kts 28°
2026-05-04 16:57 26.49843 -79.19988 36442 ft 493 kts 28°
2026-05-04 16:57 26.55581 -79.15889 37800 ft 493 kts 28°
2026-05-04 16:58 26.64214 -79.09712 39635 ft 493 kts 29°
2026-05-04 16:58 26.67102 -79.07644 40203 ft 493 kts 29°
2026-05-04 16:59 26.72848 -79.03524 41065 ft 497 kts 29°
2026-05-04 17:00 26.84695 -78.95013 41073 ft 507 kts 30°
2026-05-04 17:01 26.99693 -78.84206 41077 ft 523 kts 28°
2026-05-04 17:02 27.11937 -78.75362 41074 ft 529 kts 27°
2026-05-04 17:03 27.21157 -78.68685 41076 ft 529 kts 27°
2026-05-04 17:03 27.30789 -78.63143 41063 ft 507 kts
2026-05-04 17:04 27.44589 -78.61244 41070 ft 500 kts 358°
2026-05-04 17:05 27.58389 -78.59454 41061 ft 500 kts 358°
2026-05-04 17:06 27.68687 -78.58113 41062 ft 500 kts 358°
2026-05-04 17:07 27.77855 -78.56918 41063 ft 500 kts 358°
2026-05-04 17:07 27.85884 -78.55870 41063 ft 500 kts 358°
2026-05-04 17:08 27.96209 -78.54520 41064 ft 500 kts 358°
2026-05-04 17:09 28.03087 -78.53619 41065 ft 500 kts 358°
2026-05-04 17:09 28.10002 -78.52711 41065 ft 500 kts 358°
2026-05-04 17:10 28.27205 -78.50450 41061 ft 500 kts 358°
2026-05-04 17:11 28.34120 -78.49539 41061 ft 500 kts 358°
2026-05-04 17:12 28.44412 -78.48181 41063 ft 500 kts 358°
2026-05-04 17:13 28.61649 -78.45900 41064 ft 500 kts 358°
2026-05-04 17:14 28.75439 -78.44070 41083 ft 500 kts 358°
2026-05-04 17:15 28.85797 -78.42693 41096 ft 500 kts 358°
2026-05-04 17:16 28.99539 -78.40861 41101 ft 503 kts 359°
2026-05-04 17:17 29.13582 -78.38984 41096 ft 513 kts 359°
2026-05-04 17:18 29.27656 -78.37096 41098 ft 513 kts 359°
2026-05-04 17:19 29.41774 -78.35198 41100 ft 513 kts 359°
2026-05-04 17:20 29.55801 -78.34800 41084 ft 501 kts 348°
2026-05-04 17:20 29.66190 -78.35569 41087 ft 501 kts 348°
2026-05-04 17:21 29.80052 -78.36597 41088 ft 501 kts 348°
2026-05-04 17:22 29.86979 -78.37112 41089 ft 501 kts 348°
2026-05-04 17:23 30.00844 -78.38145 41090 ft 501 kts 348°
2026-05-04 17:24 30.11230 -78.38917 41086 ft 501 kts 349°
2026-05-04 17:24 30.21773 -78.37856 41087 ft 514 kts
2026-05-04 17:25 30.25308 -78.37328 41082 ft 513 kts
2026-05-04 17:26 30.39431 -78.35211 41131 ft 514 kts
2026-05-04 17:27 30.57020 -78.31319 41142 ft 518 kts
2026-05-04 17:28 30.71059 -78.28035 41144 ft 518 kts
2026-05-04 17:29 30.92161 -78.23082 41145 ft 517 kts
2026-05-04 17:31 31.09660 -78.19177 41139 ft 514 kts
2026-05-04 17:32 31.27187 -78.15269 41133 ft 514 kts
2026-05-04 17:33 31.41160 -78.12144 41134 ft 514 kts
2026-05-04 17:34 31.55183 -78.08790 41136 ft 515 kts
2026-05-04 17:35 31.72605 -78.04572 41138 ft 514 kts
2026-05-04 17:36 31.79624 -78.02868 41140 ft 515 kts
2026-05-04 17:36 31.86582 -78.01175 41138 ft 514 kts
2026-05-04 17:37 31.93574 -77.99472 41140 ft 514 kts
2026-05-04 17:37 32.00520 -77.97778 41142 ft 515 kts
2026-05-04 17:38 32.07499 -77.96074 41141 ft 515 kts
2026-05-04 17:38 32.14507 -77.94359 41134 ft 515 kts
2026-05-04 17:39 32.25007 -77.91785 41136 ft 515 kts
2026-05-04 17:39 32.32050 -77.90055 41137 ft 515 kts
2026-05-04 17:40 32.39034 -77.88336 41136 ft 515 kts
2026-05-04 17:40 32.46055 -77.86607 41137 ft 515 kts
2026-05-04 17:41 32.52993 -77.84894 41140 ft 514 kts
2026-05-04 17:41 32.60004 -77.83161 41140 ft 515 kts
2026-05-04 17:42 32.67018 -77.81424 41140 ft 514 kts
2026-05-04 17:42 32.74004 -77.79692 41142 ft 515 kts
2026-05-04 17:43 32.81007 -77.77953 41141 ft 515 kts
2026-05-04 17:43 32.88017 -77.76208 41143 ft 515 kts
2026-05-04 17:44 32.94967 -77.74477 41143 ft 515 kts
2026-05-04 17:44 33.01953 -77.72734 41144 ft 514 kts
2026-05-04 17:45 33.08728 -77.71041 41145 ft 512 kts
2026-05-04 17:45 33.15717 -77.69289 41138 ft 511 kts
2026-05-04 17:46 33.22629 -77.67556 41140 ft 511 kts
2026-05-04 17:46 33.29601 -77.65805 41140 ft 512 kts
2026-05-04 17:47 33.36518 -77.64064 41137 ft 512 kts
2026-05-04 17:47 33.43427 -77.62323 41141 ft 511 kts
2026-05-04 17:48 33.50410 -77.60561 41139 ft 511 kts
2026-05-04 17:48 33.57336 -77.58813 41141 ft 511 kts
2026-05-04 17:49 33.64316 -77.57423 41139 ft 510 kts
2026-05-04 17:49 33.71307 -77.56078 41139 ft 510 kts
2026-05-04 17:50 33.78251 -77.54738 41138 ft 509 kts
2026-05-04 17:50 33.85221 -77.53392 41136 ft 510 kts
2026-05-04 17:51 33.92185 -77.52045 41128 ft 510 kts
2026-05-04 17:51 33.99180 -77.50690 41128 ft 510 kts
2026-05-04 17:52 34.06129 -77.49340 41127 ft 509 kts
2026-05-04 17:52 34.13156 -77.47974 41121 ft 509 kts
2026-05-04 17:53 34.20123 -77.46618 41118 ft 510 kts
2026-05-04 17:53 34.27114 -77.45253 41121 ft 509 kts
2026-05-04 17:54 34.34098 -77.43888 41124 ft 510 kts
2026-05-04 17:54 34.41083 -77.42521 41122 ft 510 kts
2026-05-04 17:55 34.48011 -77.40894 41103 ft 514 kts 14°
2026-05-04 17:55 34.54576 -77.37375 41130 ft 519 kts 24°
2026-05-04 17:56 34.61038 -77.33390 41117 ft 520 kts 24°
2026-05-04 17:56 34.67476 -77.29413 41117 ft 520 kts 24°
2026-05-04 17:57 34.73922 -77.25423 41120 ft 520 kts 24°
2026-05-04 17:57 34.80379 -77.21419 41122 ft 519 kts 24°
2026-05-04 17:58 34.86751 -77.17461 41126 ft 520 kts 24°
2026-05-04 17:58 34.93145 -77.13484 41126 ft 525 kts 24°
2026-05-04 17:59 34.99691 -77.09404 41123 ft 534 kts 25°
2026-05-04 18:00 35.09750 -77.03118 41121 ft 538 kts 25°
2026-05-04 18:00 35.16425 -76.98940 41116 ft 537 kts 25°
2026-05-04 18:01 35.23047 -76.94785 41115 ft 536 kts 25°
2026-05-04 18:01 35.29691 -76.90725 41109 ft 535 kts 25°
2026-05-04 18:02 35.39624 -76.84673 41100 ft 532 kts 25°
2026-05-04 18:02 35.46275 -76.80612 41098 ft 532 kts 25°
2026-05-04 18:03 35.52883 -76.76568 41103 ft 531 kts 25°
2026-05-04 18:03 35.59484 -76.72522 41102 ft 531 kts 25°
2026-05-04 18:04 35.66110 -76.68453 41103 ft 531 kts 25°
2026-05-04 18:05 35.76015 -76.62357 41093 ft 531 kts 25°
2026-05-04 18:05 35.82615 -76.58285 41089 ft 530 kts 25°
2026-05-04 18:06 35.92486 -76.52027 41093 ft 531 kts 27°
2026-05-04 18:06 35.98912 -76.47697 40775 ft 516 kts 27°
2026-05-04 18:07 36.02024 -76.45599 40279 ft 512 kts 27°
2026-05-04 18:07 36.05109 -76.43518 39804 ft 512 kts 27°
2026-05-04 18:07 36.08125 -76.41479 39343 ft 512 kts 27°
2026-05-04 18:07 36.11277 -76.39349 38872 ft 513 kts 27°
2026-05-04 18:08 36.14377 -76.37251 38457 ft 513 kts 27°
2026-05-04 18:08 36.17464 -76.35160 38046 ft 513 kts 27°
2026-05-04 18:08 36.20570 -76.33054 37616 ft 513 kts 27°
2026-05-04 18:08 36.23721 -76.30916 37184 ft 513 kts 27°
2026-05-04 18:09 36.29954 -76.26679 36331 ft 513 kts 27°
2026-05-04 18:09 36.35879 -76.22646 35521 ft 515 kts 27°
2026-05-04 18:10 36.39037 -76.20493 35095 ft 515 kts 27°
2026-05-04 18:10 36.42176 -76.18350 34684 ft 516 kts 27°
2026-05-04 18:10 36.45297 -76.16219 34270 ft 518 kts 27°
2026-05-04 18:10 36.48457 -76.14059 33858 ft 518 kts 27°
2026-05-04 18:11 36.51601 -76.11909 33451 ft 519 kts 27°
2026-05-04 18:11 36.54741 -76.09757 33034 ft 519 kts 27°
2026-05-04 18:11 36.57883 -76.07603 32624 ft 520 kts 27°
2026-05-04 18:11 36.61042 -76.05435 32224 ft 520 kts 27°
2026-05-04 18:12 36.64207 -76.03261 31809 ft 521 kts 27°
2026-05-04 18:12 36.67357 -76.01096 31406 ft 520 kts 27°
2026-05-04 18:12 36.70532 -75.98910 30997 ft 521 kts 27°
2026-05-04 18:12 36.73728 -75.96709 30630 ft 521 kts 27°
2026-05-04 18:13 36.76860 -75.94550 30273 ft 519 kts 27°
2026-05-04 18:13 36.80026 -75.92364 29899 ft 517 kts 27°
2026-05-04 18:13 36.86273 -75.88047 29156 ft 510 kts 27°
2026-05-04 18:14 36.89352 -75.85916 29043 ft 508 kts 27°
2026-05-04 18:14 36.95506 -75.81651 28521 ft 506 kts 27°
2026-05-04 18:15 37.01611 -75.77413 27934 ft 503 kts 27°
2026-05-04 18:15 37.07938 -75.74178 27394 ft 496 kts 10°
2026-05-04 18:15 37.11339 -75.73343 27131 ft 494 kts
2026-05-04 18:16 37.14676 -75.72626 26853 ft 492 kts
2026-05-04 18:16 37.18023 -75.71911 26575 ft 489 kts
2026-05-04 18:16 37.21395 -75.71189 26294 ft 486 kts
2026-05-04 18:17 37.28024 -75.69769 25738 ft 482 kts
2026-05-04 18:17 37.31295 -75.69067 25463 ft 479 kts
2026-05-04 18:17 37.37836 -75.67662 24912 ft 474 kts
2026-05-04 18:18 37.40825 -75.67019 24658 ft 472 kts
2026-05-04 18:18 37.43845 -75.66369 24402 ft 470 kts
2026-05-04 18:18 37.47098 -75.65668 24125 ft 468 kts
2026-05-04 18:18 37.50312 -75.64975 23851 ft 466 kts
2026-05-04 18:19 37.56633 -75.63610 23310 ft 461 kts
2026-05-04 18:19 37.59767 -75.62933 23040 ft 459 kts
2026-05-04 18:19 37.62918 -75.62251 22768 ft 457 kts
2026-05-04 18:20 37.66026 -75.61578 22499 ft 454 kts
2026-05-04 18:20 37.69146 -75.61295 22217 ft 447 kts 355°
2026-05-04 18:20 37.72224 -75.61437 21955 ft 443 kts 352°
2026-05-04 18:20 37.75279 -75.61725 21688 ft 441 kts 351°
2026-05-04 18:21 37.78308 -75.62036 21421 ft 438 kts 351°
2026-05-04 18:21 37.81374 -75.62260 21129 ft 440 kts 358°
2026-05-04 18:21 37.84395 -75.61716 20869 ft 445 kts 13°
2026-05-04 18:21 37.87159 -75.60032 20609 ft 447 kts 31°
2026-05-04 18:22 37.89743 -75.57835 20383 ft 446 kts 33°
2026-05-04 18:22 37.92298 -75.55608 20163 ft 444 kts 33°
2026-05-04 18:22 37.94770 -75.53454 19979 ft 442 kts 33°
2026-05-04 18:22 37.97291 -75.51257 19789 ft 441 kts 33°
2026-05-04 18:23 37.99818 -75.49052 19599 ft 439 kts 33°
2026-05-04 18:23 38.02309 -75.46878 19411 ft 438 kts 33°
2026-05-04 18:23 38.04853 -75.44772 19206 ft 435 kts 27°
2026-05-04 18:23 38.07517 -75.43033 19028 ft 434 kts 24°
2026-05-04 18:24 38.10256 -75.41385 18810 ft 432 kts 22°
2026-05-04 18:24 38.12976 -75.39786 18585 ft 430 kts 22°
2026-05-04 18:24 38.15653 -75.38219 18363 ft 428 kts 22°
2026-05-04 18:24 38.18357 -75.36634 18139 ft 427 kts 22°
2026-05-04 18:25 38.21070 -75.35043 17914 ft 425 kts 22°
2026-05-04 18:25 38.23730 -75.33482 17691 ft 423 kts 23°
2026-05-04 18:25 38.26383 -75.31924 17487 ft 421 kts 23°
2026-05-04 18:25 38.29075 -75.30342 17278 ft 420 kts 23°
2026-05-04 18:26 38.31701 -75.28796 17074 ft 418 kts 23°
2026-05-04 18:26 38.34345 -75.27240 16868 ft 417 kts 23°
2026-05-04 18:26 38.36969 -75.25694 16664 ft 415 kts 23°
2026-05-04 18:26 38.39594 -75.24146 16459 ft 413 kts 23°
2026-05-04 18:27 38.42185 -75.22617 16256 ft 412 kts 23°
2026-05-04 18:27 38.44760 -75.21096 16054 ft 410 kts 23°
2026-05-04 18:27 38.47336 -75.19574 15852 ft 408 kts 23°
2026-05-04 18:27 38.49924 -75.18043 15655 ft 407 kts 23°
2026-05-04 18:28 38.52487 -75.16525 15449 ft 405 kts 23°
2026-05-04 18:28 38.55027 -75.15021 15249 ft 403 kts 23°
2026-05-04 18:28 38.57568 -75.13493 15004 ft 402 kts 24°
2026-05-04 18:28 38.60056 -75.11915 14754 ft 400 kts 25°
2026-05-04 18:29 38.62555 -75.10319 14502 ft 399 kts 25°
2026-05-04 18:29 38.65047 -75.08725 14251 ft 398 kts 25°
2026-05-04 18:29 38.67502 -75.07153 14003 ft 397 kts 25°
2026-05-04 18:29 38.69948 -75.05585 13755 ft 395 kts 25°
2026-05-04 18:30 38.74858 -75.02434 13304 ft 392 kts 25°
2026-05-04 18:30 38.77148 -75.00963 13094 ft 391 kts 25°
2026-05-04 18:30 38.79431 -74.99496 12884 ft 390 kts 25°
2026-05-04 18:31 38.81947 -74.97877 12653 ft 388 kts 26°
2026-05-04 18:31 38.84343 -74.96335 12431 ft 387 kts 26°
2026-05-04 18:31 38.86713 -74.94807 12212 ft 385 kts 26°
2026-05-04 18:31 38.88972 -74.93351 12005 ft 384 kts 26°
2026-05-04 18:32 38.91381 -74.91797 11807 ft 383 kts 26°
2026-05-04 18:32 38.93785 -74.90244 11610 ft 383 kts 26°
2026-05-04 18:32 38.96142 -74.88721 11416 ft 382 kts 26°
2026-05-04 18:32 38.98542 -74.87169 11219 ft 381 kts 26°
2026-05-04 18:33 39.00912 -74.85634 11024 ft 380 kts 26°
2026-05-04 18:33 39.03237 -74.84129 10825 ft 379 kts 26°
2026-05-04 18:33 39.05589 -74.82604 10576 ft 377 kts 26°
2026-05-04 18:33 39.08011 -74.81267 10329 ft 375 kts 14°
2026-05-04 18:34 39.10558 -74.80911 10096 ft 371 kts 354°
2026-05-04 18:34 39.13070 -74.81460 9865 ft 341 kts 343°
2026-05-04 18:34 39.15226 -74.82189 9571 ft 309 kts 341°
2026-05-04 18:34 39.17279 -74.82943 9274 ft 305 kts 340°
2026-05-04 18:35 39.19226 -74.83670 9052 ft 304 kts 340°
2026-05-04 18:35 39.21278 -74.84441 9025 ft 304 kts 340°
2026-05-04 18:35 39.23206 -74.85165 9027 ft 304 kts 340°
2026-05-04 18:35 39.25232 -74.85927 9025 ft 304 kts 340°
2026-05-04 18:36 39.27230 -74.86680 9023 ft 303 kts 340°
2026-05-04 18:36 39.29278 -74.87453 9020 ft 302 kts 340°
2026-05-04 18:36 39.31300 -74.88216 9018 ft 301 kts 340°
2026-05-04 18:36 39.33306 -74.88972 9015 ft 300 kts 339°
2026-05-04 18:37 39.35247 -74.89735 9005 ft 298 kts 334°
2026-05-04 18:37 39.36861 -74.91259 8992 ft 285 kts 306°
2026-05-04 18:37 39.38141 -74.93253 9023 ft 285 kts 305°
2026-05-04 18:37 39.39424 -74.95182 8989 ft 286 kts 306°
2026-05-04 18:38 39.40732 -74.97103 8709 ft 284 kts 307°
2026-05-04 18:38 39.42046 -74.99011 8398 ft 282 kts 307°
2026-05-04 18:38 39.43340 -75.00886 8072 ft 280 kts 307°
2026-05-04 18:38 39.44633 -75.02756 7748 ft 278 kts 307°
2026-05-04 18:39 39.45915 -75.04610 7448 ft 276 kts 308°
2026-05-04 18:39 39.47202 -75.06473 7145 ft 275 kts 308°
2026-05-04 18:39 39.48478 -75.08320 6843 ft 273 kts 308°
2026-05-04 18:39 39.49760 -75.10178 6537 ft 272 kts 308°
2026-05-04 18:40 39.51015 -75.11996 6236 ft 270 kts 308°
2026-05-04 18:40 39.52253 -75.13791 5938 ft 269 kts 308°
2026-05-04 18:40 39.53497 -75.15597 5636 ft 268 kts 308°
2026-05-04 18:40 39.54742 -75.17403 5334 ft 267 kts 308°
2026-05-04 18:41 39.55883 -75.19061 5055 ft 266 kts 308°
2026-05-04 18:41 39.57154 -75.20908 4744 ft 265 kts 308°
2026-05-04 18:41 39.58389 -75.22704 4440 ft 264 kts 308°
2026-05-04 18:41 39.59609 -75.24480 4139 ft 263 kts 308°
2026-05-04 18:42 39.60816 -75.26236 3816 ft 261 kts 308°
2026-05-04 18:42 39.62028 -75.28002 3489 ft 260 kts 308°
2026-05-04 18:42 39.63289 -75.29719 3142 ft 263 kts 319°
2026-05-04 18:42 39.64825 -75.30983 2798 ft 263 kts 326°
2026-05-04 18:43 39.66419 -75.32162 2450 ft 256 kts 327°
2026-05-04 18:43 39.67903 -75.33210 2072 ft 233 kts 328°
2026-05-04 18:43 39.69281 -75.34169 1649 ft 218 kts 328°
2026-05-04 18:43 39.70552 -75.35056 1399 ft 193 kts 324°
2026-05-04 18:44 39.71316 -75.36298 1062 ft 173 kts 284°
2026-05-04 18:44 39.71456 -75.37325 994 ft 170 kts 275°
2026-05-04 18:44 39.71612 -75.39372 1134 ft 172 kts 272°
2026-05-04 18:44 39.71664 -75.40937 1110 ft 172 kts 268°
2026-05-04 18:45 39.71593 -75.42474 1043 ft 170 kts 264°
2026-05-04 18:45 39.71496 -75.44016 1231 ft 171 kts 263°
2026-05-04 18:45 39.71377 -75.45573 1403 ft 171 kts 262°
2026-05-04 18:45 39.71239 -75.47128 1538 ft 172 kts 261°
2026-05-04 18:46 39.71039 -75.48667 1634 ft 173 kts 256°
2026-05-04 18:46 39.70715 -75.50169 1634 ft 171 kts 251°
2026-05-04 18:46 39.70315 -75.51497 1371 ft 151 kts 246°
2026-05-04 18:46 39.69945 -75.52568 1155 ft 146 kts 245°
2026-05-04 18:47 39.69498 -75.53792 1174 ft 150 kts 244°
2026-05-04 18:47 39.69079 -75.54941 1170 ft 139 kts 248°
2026-05-04 18:47 39.68831 -75.56052 775 ft 117 kts 254°
2026-05-04 18:47 39.68641 -75.56998 479 ft 107 kts 253°
2026-05-04 18:48 39.68472 -75.57923 404 ft 100 kts 256°
2026-05-04 18:48 39.68357 -75.58870 213 ft 102 kts 256°
2026-05-04 18:48 39.68188 -75.59757 75 ft 94 kts 256°
2026-05-04 18:48 39.68097 -75.60323 72 ft 18 kts 259°
2026-05-04 18:49 39.68140 -75.60384 72 ft 8 kts